PUUANAHULU RAWS NEAR KAILUA KONA 20NE HADS current weather conditions

sailwx.info

Wind from 328 at 8 knots gusting 18

Air temperature 25.0° C
Dewpoint 17.5° C

Last reported at 2017-Sep-24 00:37 UTC.
Time now 2017-Sep-24 01:44 UTC

Location: N 19°50' W 155°46'.
View on Google Maps.

See reports from other nearby stations

  
Tides and Currents Weather Stations Pressure Air Temp Water Temp Dewpoint Dewpoint Depression Visibility Wind Speed Wind Dir Waves Ship Positions
date/time (UTC)wind fromknots sea level pressurealtimeterstation pressurevisibilityair tempwater tempwave heightnotes
2017-Sep-24 00:37 328 8 gusting 18 25.0
2017-Sep-23 23:37 320 7 gusting 18 26.7
2017-Sep-23 22:37 349 8 gusting 19 27.2
2017-Sep-23 21:37 359 11 gusting 19 27.8
2017-Sep-23 20:37 003 10 gusting 18 26.7
2017-Sep-23 19:37 011 5 gusting 20 26.1
2017-Sep-23 18:37 334 3 gusting 6 24.4
2017-Sep-23 17:37 104 4 gusting 13 22.2
2017-Sep-23 16:37 120 6 gusting 11 16.7
2017-Sep-23 15:37 131 6 gusting 11 16.1
2017-Sep-23 14:37 129 7 gusting 12 16.1
2017-Sep-23 13:37 141 6 gusting 9 16.1
2017-Sep-23 12:37 133 6 gusting 10 16.7
2017-Sep-23 11:37 131 6 gusting 8 16.7
2017-Sep-23 10:37 131 6 gusting 7 16.7
2017-Sep-23 09:37 126 5 gusting 6 17.2
2017-Sep-23 08:37 116 3 gusting 6 17.8
2017-Sep-23 07:37 104 2 gusting 6 18.3
2017-Sep-23 06:37 193 2 gusting 7 19.4
2017-Sep-23 05:37 201 4 gusting 6 19.4
2017-Sep-23 04:37 050 3 gusting 12 20.6
2017-Sep-23 03:37 358 5 gusting 15 22.8
2017-Sep-23 02:37 354 11 gusting 18 23.9
2017-Sep-23 01:37 327 11 gusting 20 25.6
2017-Sep-23 00:37 358 11 gusting 20 26.1
2017-Sep-22 23:37 356 8 gusting 26 26.1
2017-Sep-22 22:37 357 16 gusting 26 26.1
2017-Sep-22 21:37 009 9 gusting 20 27.2
2017-Sep-22 20:37 26.7
2017-Sep-22 19:37 345 8 gusting 15 25.6
2017-Sep-22 18:37 323 3 gusting 7 24.4
2017-Sep-22 17:37 125 6 gusting 12 21.7
2017-Sep-22 16:37 131 7 gusting 13 17.8
2017-Sep-22 15:37 135 7 gusting 12 17.2
2017-Sep-22 14:37 139 6 gusting 10 17.8
2017-Sep-22 13:37 131 6 gusting 8 17.2
2017-Sep-22 12:37 125 3 gusting 6 16.7
2017-Sep-22 11:37 134 3 gusting 4 17.8
2017-Sep-22 10:37 128 2 gusting 6 18.3
2017-Sep-22 09:37 115 3 gusting 6 18.9
2017-Sep-22 08:37 345 0 gusting 5 18.9
2017-Sep-22 07:37 176 4 gusting 5 20.0
2017-Sep-22 06:37 150 2 gusting 5 20.6
2017-Sep-22 05:37 170 3 gusting 6 20.0
2017-Sep-22 04:37 048 3 gusting 14 21.1
2017-Sep-22 03:37 005 13 gusting 26 22.2
2017-Sep-22 02:37 001 15 gusting 24 23.9
2017-Sep-22 01:37 354 15 gusting 26 25.0